UAL75 EDDH-KEWR

Flight info

Callsign UAL75
Flight time N/A
Altitude 34000
Route WSN4B WSN N125 PREXA DCT RAVLO Y70 OTBED L60 PENIL UL70 BAGSO DCT MOLAK DCT RESNO/M079F350 NATA JANJO/N0449F360 N712B QUBIS DCT CBIRD DCT KJOHN DCT HANAA FLOSI4
Aircraft B764/H-SDE3FGHIM3RWXY/LB1

Departure

Time 2026-04-26 11:54
Airport Hamburg Helmut Schmidt Airport (EDDH)

Arrival

Time N/A
Airport Newark Liberty International Airport (KEWR)
Time Latitude Longitude Altitude Speed Heading
2026-04-26 11:38 53.62890 10.00214 64 ft 0 kts 122°
2026-04-26 11:42 53.62890 10.00213 64 ft 0 kts 122°
2026-04-26 11:43 53.62891 10.00213 64 ft 0 kts 122°
2026-04-26 11:44 53.62898 10.00193 64 ft 2 kts 122°
2026-04-26 11:44 53.62906 10.00172 64 ft 2 kts 122°
2026-04-26 11:44 53.62914 10.00150 64 ft 2 kts 122°
2026-04-26 11:44 53.62922 10.00129 64 ft 2 kts 123°
2026-04-26 11:45 53.62933 10.00111 64 ft 2 kts 153°
2026-04-26 11:45 53.62947 10.00104 64 ft 2 kts 177°
2026-04-26 11:45 53.62961 10.00107 64 ft 2 kts 201°
2026-04-26 11:45 53.62968 10.00113 64 ft 1 kts 216°
2026-04-26 11:46 53.62971 10.00117 64 ft 0 kts 213°
2026-04-26 11:48 53.62970 10.00116 64 ft 0 kts 213°
2026-04-26 11:48 53.62961 10.00105 64 ft 2 kts 213°
2026-04-26 11:48 53.62937 10.00080 64 ft 5 kts 211°
2026-04-26 11:49 53.62895 10.00050 64 ft 6 kts 185°
2026-04-26 11:49 53.62847 10.00072 64 ft 5 kts 156°
2026-04-26 11:49 53.62801 10.00109 64 ft 8 kts 153°
2026-04-26 11:49 53.62740 10.00161 64 ft 11 kts 153°
2026-04-26 11:50 53.62661 10.00227 64 ft 11 kts 153°
2026-04-26 11:50 53.62615 10.00263 64 ft 5 kts 172°
2026-04-26 11:50 53.62603 10.00261 64 ft 0 kts 191°
2026-04-26 11:51 53.62602 10.00261 64 ft 1 kts 191°
2026-04-26 11:51 53.62588 10.00250 64 ft 4 kts 215°
2026-04-26 11:51 53.62579 10.00233 64 ft 8 kts 230°
2026-04-26 11:51 53.62559 10.00180 64 ft 0 kts 241°
2026-04-26 11:52 53.62558 10.00175 64 ft 5 kts 242°
2026-04-26 11:52 53.62537 10.00093 64 ft 8 kts 260°
2026-04-26 11:52 53.62552 10.00026 64 ft 7 kts 316°
2026-04-26 11:52 53.62606 9.99971 64 ft 8 kts 333°
2026-04-26 11:53 53.62724 9.99870 64 ft 35 kts 333°
2026-04-26 11:53 53.63054 9.99587 64 ft 71 kts 333°
2026-04-26 11:53 53.63605 9.99110 65 ft 107 kts 333°
2026-04-26 11:54 53.65464 9.97499 109 ft 195 kts 333°
2026-04-26 11:54 53.66745 9.96391 510 ft 222 kts 333°
2026-04-26 11:54 53.68160 9.95155 1261 ft 237 kts 332°
2026-04-26 11:54 53.69581 9.93956 2037 ft 231 kts 332°
2026-04-26 11:55 53.70878 9.92147 2057 ft 255 kts 302°
2026-04-26 11:55 53.71433 9.89334 2587 ft 258 kts 270°
2026-04-26 11:55 53.71073 9.86392 3266 ft 258 kts 248°
2026-04-26 11:55 53.70419 9.83592 3878 ft 260 kts 251°
2026-04-26 11:56 53.69810 9.80712 4455 ft 264 kts 251°
2026-04-26 11:56 53.69205 9.77786 5088 ft 265 kts 252°
2026-04-26 11:56 53.68611 9.74851 5665 ft 269 kts 253°
2026-04-26 11:56 53.68015 9.71862 6277 ft 271 kts 253°
2026-04-26 11:57 53.67420 9.68866 6880 ft 273 kts 253°
2026-04-26 11:57 53.66819 9.65835 7472 ft 276 kts 254°
2026-04-26 11:57 53.66211 9.62769 8100 ft 277 kts 255°
2026-04-26 11:57 53.65606 9.59718 8686 ft 279 kts 255°
2026-04-26 11:58 53.64705 9.56699 8867 ft 303 kts 238°
2026-04-26 11:58 53.63418 9.53702 8946 ft 327 kts 238°
2026-04-26 11:58 53.62076 9.50535 9252 ft 344 kts 238°
2026-04-26 11:58 53.60666 9.47247 10040 ft 346 kts 238°
2026-04-26 11:59 53.59264 9.43979 10737 ft 350 kts 238°
2026-04-26 11:59 53.57838 9.40658 11504 ft 353 kts 238°
2026-04-26 11:59 53.56361 9.37218 11639 ft 376 kts 238°
2026-04-26 11:59 53.54828 9.33669 12444 ft 379 kts 237°
2026-04-26 12:00 53.53275 9.30072 13164 ft 384 kts 237°
2026-04-26 12:00 53.51716 9.26469 13945 ft 387 kts 237°
2026-04-26 12:00 53.50119 9.22781 14719 ft 391 kts 237°
2026-04-26 12:00 53.48523 9.19099 15511 ft 393 kts 237°
2026-04-26 12:01 53.46930 9.15433 16297 ft 396 kts 237°
2026-04-26 12:01 53.45308 9.11704 17068 ft 398 kts 237°
2026-04-26 12:01 53.43681 9.07969 17805 ft 402 kts 237°
2026-04-26 12:01 53.42022 9.04165 18604 ft 404 kts 237°
2026-04-26 12:02 53.40383 9.00412 19283 ft 408 kts 237°
2026-04-26 12:02 53.39265 8.97857 19774 ft 410 kts 236°
2026-04-26 12:02 53.37018 8.92729 20753 ft 414 kts 236°
2026-04-26 12:02 53.35352 8.88767 21446 ft 415 kts 241°
2026-04-26 12:03 53.34074 8.84484 22072 ft 416 kts 251°
2026-04-26 12:03 53.33087 8.79949 22681 ft 419 kts 251°
2026-04-26 12:03 53.32066 8.75423 23296 ft 422 kts 251°
2026-04-26 12:03 53.31045 8.70822 23903 ft 424 kts 251°
2026-04-26 12:04 53.30006 8.66160 24397 ft 429 kts 251°
2026-04-26 12:04 53.28992 8.61537 24977 ft 430 kts 252°
2026-04-26 12:04 53.27954 8.56803 25439 ft 434 kts 252°
2026-04-26 12:04 53.26925 8.52118 25945 ft 436 kts 252°
2026-04-26 12:05 53.25935 8.47352 26379 ft 439 kts 255°
2026-04-26 12:05 53.25039 8.42477 26834 ft 441 kts 254°
2026-04-26 12:05 53.24115 8.37585 27251 ft 444 kts 255°
2026-04-26 12:05 53.23195 8.32708 27667 ft 446 kts 253°
2026-04-26 12:06 53.22264 8.27780 28042 ft 448 kts 253°
2026-04-26 12:06 53.21335 8.22888 28624 ft 445 kts 253°
2026-04-26 12:06 53.20407 8.18013 29136 ft 443 kts 253°
2026-04-26 12:06 53.19469 8.13098 29571 ft 441 kts 253°
2026-04-26 12:07 53.18559 8.08282 29944 ft 441 kts 254°
2026-04-26 12:07 53.17646 8.03434 30281 ft 440 kts 254°
2026-04-26 12:07 53.16730 7.98583 30623 ft 440 kts 254°
2026-04-26 12:07 53.15812 7.93732 30909 ft 439 kts 254°
2026-04-26 12:08 53.14899 7.88919 31201 ft 439 kts 254°
2026-04-26 12:08 53.13047 7.79201 31608 ft 441 kts 254°
2026-04-26 12:08 53.12118 7.74341 31850 ft 441 kts 254°
2026-04-26 12:09 53.11186 7.69481 32106 ft 440 kts 254°
2026-04-26 12:09 53.10258 7.64660 32373 ft 439 kts 254°
2026-04-26 12:09 53.09327 7.59836 32596 ft 439 kts 254°
2026-04-26 12:09 53.08390 7.54996 32848 ft 438 kts 254°
2026-04-26 12:10 53.07458 7.50197 33040 ft 439 kts 254°
2026-04-26 12:10 53.06527 7.45410 33241 ft 438 kts 254°
2026-04-26 12:10 53.05594 7.40630 33463 ft 438 kts 254°
2026-04-26 12:10 53.04657 7.35843 33628 ft 438 kts 254°
2026-04-26 12:11 53.03714 7.31033 33873 ft 437 kts 253°
2026-04-26 12:11 53.02769 7.26224 34058 ft 437 kts 253°
2026-04-26 12:11 53.01834 7.21483 34252 ft 436 kts 253°
2026-04-26 12:12 52.99922 7.12034 34338 ft 430 kts 253°
2026-04-26 12:12 52.98014 7.02659 34343 ft 430 kts 253°
2026-04-26 12:13 52.96102 6.93313 34342 ft 430 kts 253°
2026-04-26 12:13 52.94172 6.83919 34344 ft 430 kts 253°
2026-04-26 12:14 52.92242 6.74570 34343 ft 430 kts 253°
2026-04-26 12:14 52.90310 6.65258 34342 ft 430 kts 253°
2026-04-26 12:15 52.88363 6.55914 34339 ft 430 kts 253°
2026-04-26 12:15 52.86423 6.46646 34340 ft 429 kts 253°
2026-04-26 12:16 52.84459 6.37312 34337 ft 428 kts 253°
2026-04-26 12:16 52.82500 6.28046 34343 ft 428 kts 253°
2026-04-26 12:17 52.80541 6.18816 34342 ft 428 kts 253°
2026-04-26 12:17 52.78571 6.09585 34345 ft 427 kts 253°
2026-04-26 12:18 52.76590 6.00328 34347 ft 427 kts 253°
2026-04-26 12:18 52.74612 5.91102 34346 ft 427 kts 253°
2026-04-26 12:19 52.72978 5.81834 34355 ft 422 kts 265°
2026-04-26 12:19 52.72689 5.72240 34344 ft 420 kts 270°
2026-04-26 12:20 52.72511 5.62625 34347 ft 419 kts 270°
2026-04-26 12:20 52.72348 5.53055 34350 ft 419 kts 270°
2026-04-26 12:21 52.72185 5.43487 34344 ft 419 kts 270°
2026-04-26 12:21 52.72018 5.33918 34340 ft 418 kts 270°
2026-04-26 12:22 52.71844 5.24345 34346 ft 418 kts 270°
2026-04-26 12:22 52.71664 5.14814 34346 ft 418 kts 270°
2026-04-26 12:23 52.71476 5.05255 34351 ft 417 kts 270°
2026-04-26 12:23 52.71280 4.95700 34349 ft 417 kts 270°
2026-04-26 12:24 52.71077 4.86177 34352 ft 416 kts 270°
2026-04-26 12:24 52.70867 4.76706 34361 ft 415 kts 270°
2026-04-26 12:25 52.70537 4.62434 34345 ft 415 kts 270°
2026-04-26 12:25 52.70309 4.52974 34355 ft 414 kts 270°
2026-04-26 12:26 52.70820 4.43661 34388 ft 407 kts 287°
2026-04-26 12:26 52.72300 4.34687 34369 ft 407 kts 286°
2026-04-26 12:27 52.73782 4.25734 34375 ft 406 kts 286°
2026-04-26 12:27 52.75271 4.16761 34362 ft 407 kts 287°
2026-04-26 12:28 52.76761 4.07756 34359 ft 406 kts 286°
2026-04-26 12:28 52.78232 3.98825 34358 ft 406 kts 287°
2026-04-26 12:29 52.79707 3.89834 34363 ft 405 kts 287°
2026-04-26 12:30 52.81894 3.76405 34357 ft 404 kts 286°
2026-04-26 12:30 52.83340 3.67468 34358 ft 404 kts 286°
2026-04-26 12:31 52.85502 3.54023 34363 ft 403 kts 286°
2026-04-26 12:31 52.86923 3.45125 34360 ft 402 kts 286°
2026-04-26 12:32 52.88336 3.36226 34362 ft 402 kts 286°
2026-04-26 12:33 52.90453 3.22813 34359 ft 401 kts 285°
2026-04-26 12:33 52.91829 3.13934 34359 ft 401 kts 284°
2026-04-26 12:34 52.93023 3.04914 34361 ft 400 kts 283°
2026-04-26 12:34 52.94204 2.95944 34361 ft 400 kts 283°
2026-04-26 12:35 52.95380 2.86970 34360 ft 400 kts 283°
2026-04-26 12:35 52.96552 2.77971 34361 ft 399 kts 283°
2026-04-26 12:36 52.97713 2.69000 34358 ft 398 kts 283°
2026-04-26 12:36 52.98863 2.60055 34350 ft 398 kts 283°
2026-04-26 12:37 53.00012 2.51066 34348 ft 397 kts 283°
2026-04-26 12:37 53.01144 2.42153 34350 ft 397 kts 283°
2026-04-26 12:38 53.02272 2.33210 34344 ft 396 kts 282°
2026-04-26 12:38 53.03418 2.24072 34354 ft 417 kts 282°
2026-04-26 12:38 53.04012 2.19314 34355 ft 428 kts 282°
2026-04-26 12:39 53.04620 2.14421 34352 ft 440 kts 282°
2026-04-26 12:39 53.05874 2.04269 34338 ft 451 kts 282°
2026-04-26 12:40 53.07111 1.94178 34341 ft 445 kts 282°
2026-04-26 12:40 53.08335 1.84125 34337 ft 443 kts 282°
2026-04-26 12:41 53.09538 1.74167 34336 ft 441 kts 282°
2026-04-26 12:41 53.10732 1.64206 34341 ft 439 kts 282°
2026-04-26 12:42 53.11913 1.54285 34338 ft 438 kts 282°
2026-04-26 12:42 53.13084 1.44371 34339 ft 437 kts 282°
2026-04-26 12:43 53.14242 1.34488 34336 ft 436 kts 281°
2026-04-26 12:43 53.15392 1.24602 34336 ft 435 kts 281°
2026-04-26 12:44 53.16533 1.14722 34336 ft 435 kts 281°
2026-04-26 12:44 53.17660 1.04878 34335 ft 434 kts 281°
2026-04-26 12:45 53.18782 0.95011 34334 ft 434 kts 281°
2026-04-26 12:45 53.19894 0.85151 34333 ft 434 kts 281°
2026-04-26 12:46 53.20995 0.75308 34328 ft 433 kts 281°
2026-04-26 12:46 53.22095 0.65401 34314 ft 433 kts 281°
2026-04-26 12:47 53.23179 0.55552 34316 ft 433 kts 280°
2026-04-26 12:47 53.24248 0.45770 34312 ft 432 kts 280°
2026-04-26 12:48 53.25317 0.35900 34317 ft 432 kts 280°
2026-04-26 12:48 53.26373 0.26075 34322 ft 432 kts 279°
2026-04-26 12:49 53.27423 0.16232 34325 ft 432 kts 279°
2026-04-26 12:49 53.28465 0.06372 34336 ft 432 kts 279°
2026-04-26 12:50 53.29494 -0.03446 34323 ft 432 kts 279°
2026-04-26 12:50 53.30517 -0.13287 34327 ft 432 kts 279°
2026-04-26 12:51 53.31533 -0.23149 34327 ft 431 kts 279°
2026-04-26 12:51 53.32545 -0.33047 34324 ft 431 kts 279°
2026-04-26 12:52 53.33543 -0.42904 34318 ft 431 kts 279°
2026-04-26 12:52 53.34531 -0.52736 34306 ft 431 kts 279°
2026-04-26 12:53 53.35516 -0.62630 34303 ft 431 kts 279°
2026-04-26 12:53 53.36486 -0.72449 34294 ft 431 kts 278°
2026-04-26 12:54 53.37454 -0.82329 34286 ft 431 kts 278°
2026-04-26 12:54 53.38412 -0.92197 34287 ft 431 kts 278°
2026-04-26 12:55 53.39359 -1.02050 34283 ft 431 kts 278°
2026-04-26 12:55 53.40304 -1.11969 34277 ft 431 kts 278°
2026-04-26 12:56 53.41237 -1.21845 34280 ft 431 kts 278°
2026-04-26 12:56 53.42160 -1.31728 34278 ft 431 kts 278°
2026-04-26 12:57 53.43078 -1.41634 34277 ft 431 kts 278°
2026-04-26 12:57 53.43987 -1.51539 34282 ft 430 kts 278°
2026-04-26 12:58 53.45330 -1.66357 34273 ft 430 kts 277°
2026-04-26 12:58 53.46216 -1.76239 34263 ft 430 kts 277°
2026-04-26 12:59 53.47094 -1.86135 34266 ft 430 kts 277°
2026-04-26 12:59 53.47966 -1.96056 34269 ft 430 kts 277°
2026-04-26 13:00 53.48830 -2.05988 34270 ft 430 kts 277°
2026-04-26 13:00 53.49682 -2.15870 34269 ft 430 kts 277°
2026-04-26 13:01 53.50528 -2.25788 34268 ft 430 kts 277°
2026-04-26 13:01 53.51360 -2.35650 34271 ft 429 kts 277°
2026-04-26 13:02 53.52193 -2.45618 34275 ft 429 kts 277°
2026-04-26 13:02 53.53008 -2.55479 34272 ft 429 kts 277°
2026-04-26 13:03 53.53819 -2.65380 34272 ft 429 kts 276°
2026-04-26 13:03 53.54624 -2.75326 34279 ft 429 kts 276°
2026-04-26 13:04 53.55417 -2.85223 34280 ft 429 kts 276°
2026-04-26 13:04 53.56201 -2.95113 34280 ft 429 kts 276°
2026-04-26 13:05 53.56981 -3.05066 34277 ft 430 kts 276°
2026-04-26 13:05 53.57751 -3.14996 34277 ft 430 kts 275°
2026-04-26 13:06 53.58514 -3.24950 34275 ft 430 kts 276°
2026-04-26 13:06 53.59267 -3.34867 34279 ft 429 kts 276°
2026-04-26 13:07 53.60014 -3.44830 34275 ft 429 kts 275°
2026-04-26 13:07 53.60749 -3.54752 34278 ft 429 kts 275°
2026-04-26 13:08 53.61476 -3.64675 34275 ft 429 kts 275°
2026-04-26 13:08 53.61953 -3.74652 34274 ft 429 kts 272°
2026-04-26 13:09 53.62366 -3.84706 34268 ft 429 kts 272°
2026-04-26 13:09 53.62768 -3.94665 34268 ft 430 kts 272°
2026-04-26 13:10 53.63167 -4.04720 34268 ft 430 kts 272°
2026-04-26 13:10 53.63557 -4.14747 34263 ft 430 kts 272°
2026-04-26 13:11 53.63939 -4.24776 34257 ft 430 kts 272°
2026-04-26 13:11 53.64312 -4.34795 34263 ft 430 kts 271°
2026-04-26 13:12 53.64679 -4.44859 34260 ft 431 kts 271°
2026-04-26 13:12 53.65035 -4.54865 34262 ft 431 kts 271°
2026-04-26 13:13 53.65384 -4.64912 34260 ft 431 kts 271°
2026-04-26 13:13 53.65726 -4.75028 34261 ft 431 kts 271°
2026-04-26 13:14 53.66057 -4.85051 34261 ft 431 kts 271°
2026-04-26 13:14 53.66386 -4.95133 34262 ft 432 kts 270°
2026-04-26 13:15 53.66706 -5.05218 34260 ft 432 kts 270°
2026-04-26 13:15 53.66966 -5.13574 34266 ft 432 kts 271°
2026-04-26 13:16 53.67313 -5.25384 34250 ft 432 kts 270°
2026-04-26 13:16 53.67600 -5.35438 34247 ft 432 kts 270°
2026-04-26 13:17 53.68435 -5.50568 34266 ft 436 kts 283°
2026-04-26 13:18 53.71813 -5.64822 34250 ft 440 kts 289°
2026-04-26 13:19 53.75388 -5.79075 34244 ft 440 kts 289°
2026-04-26 13:19 53.77767 -5.88568 34251 ft 440 kts 289°
2026-04-26 13:20 53.80143 -5.98069 34251 ft 441 kts 289°
2026-04-26 13:20 53.82523 -6.07620 34248 ft 441 kts 289°
2026-04-26 13:21 53.84887 -6.17147 34243 ft 442 kts 289°
2026-04-26 13:21 53.87260 -6.26754 34243 ft 442 kts 288°
2026-04-26 13:22 53.89623 -6.36358 34239 ft 442 kts 288°
2026-04-26 13:22 53.91978 -6.45976 34243 ft 443 kts 288°
2026-04-26 13:23 53.94111 -6.54722 34240 ft 443 kts 288°
2026-04-26 13:23 53.96456 -6.64377 34242 ft 443 kts 288°
2026-04-26 13:24 54.01079 -6.83536 34246 ft 444 kts 287°
2026-04-26 13:25 54.03405 -6.93245 34247 ft 445 kts 288°
2026-04-26 13:25 54.05714 -7.02921 34247 ft 445 kts 287°
2026-04-26 13:26 54.08033 -7.12688 34242 ft 446 kts 288°
2026-04-26 13:26 54.10343 -7.22456 34243 ft 446 kts 288°
2026-04-26 13:27 54.12658 -7.32287 34239 ft 446 kts 288°
2026-04-26 13:27 54.14939 -7.42025 34240 ft 446 kts 288°
2026-04-26 13:28 54.17228 -7.51836 34236 ft 446 kts 288°
2026-04-26 13:28 54.19499 -7.61618 34239 ft 445 kts 287°
2026-04-26 13:29 54.21773 -7.71461 34242 ft 445 kts 287°
2026-04-26 13:29 54.24033 -7.81286 34240 ft 446 kts 287°
2026-04-26 13:30 54.26280 -7.91104 34241 ft 446 kts 287°
2026-04-26 13:30 54.28534 -8.00991 34242 ft 446 kts 287°
2026-04-26 13:31 54.30775 -8.10870 34245 ft 446 kts 287°
2026-04-26 13:31 54.33011 -8.20777 34248 ft 446 kts 287°
2026-04-26 13:32 54.35223 -8.30618 34254 ft 446 kts 287°
2026-04-26 13:32 54.37444 -8.40547 34252 ft 446 kts 288°
2026-04-26 13:33 54.39661 -8.50509 34261 ft 446 kts 288°
2026-04-26 13:33 54.41845 -8.60366 34260 ft 446 kts 288°
2026-04-26 13:34 54.44033 -8.70296 34269 ft 446 kts 287°
2026-04-26 13:34 54.46225 -8.80283 34269 ft 447 kts 287°
2026-04-26 13:35 54.48397 -8.90229 34261 ft 447 kts 287°
2026-04-26 13:35 54.50567 -9.00211 34265 ft 448 kts 288°
2026-04-26 13:36 54.52744 -9.10281 34265 ft 448 kts 288°
2026-04-26 13:36 54.54899 -9.20294 34265 ft 448 kts 288°
2026-04-26 13:37 54.57059 -9.30382 34265 ft 448 kts 288°
2026-04-26 13:37 54.59192 -9.40388 34264 ft 449 kts 288°
2026-04-26 13:38 54.61168 -9.50580 34262 ft 446 kts 280°
2026-04-26 13:38 54.62250 -9.60996 34258 ft 445 kts 278°
2026-04-26 13:39 54.63267 -9.71512 34268 ft 445 kts 277°
2026-04-26 13:39 54.64249 -9.82033 34269 ft 446 kts 277°
2026-04-26 13:40 54.65212 -9.92567 34268 ft 446 kts 277°
2026-04-26 13:40 54.66164 -10.03153 34267 ft 446 kts 277°
2026-04-26 13:41 54.67106 -10.13746 34265 ft 447 kts 277°
2026-04-26 13:41 54.68033 -10.24287 34266 ft 447 kts 277°
2026-04-26 13:42 54.68952 -10.34857 34263 ft 447 kts 277°
2026-04-26 13:42 54.69868 -10.45506 34256 ft 447 kts 277°
2026-04-26 13:43 54.70766 -10.56051 34255 ft 447 kts 277°
2026-04-26 13:43 54.71658 -10.66643 34249 ft 447 kts 277°
2026-04-26 13:44 54.72546 -10.77304 34247 ft 447 kts 277°
2026-04-26 13:44 54.73416 -10.87867 34247 ft 448 kts 277°
2026-04-26 13:45 54.74286 -10.98540 34253 ft 448 kts 277°
2026-04-26 13:45 54.75143 -11.09169 34253 ft 447 kts 277°
2026-04-26 13:46 54.75988 -11.19775 34248 ft 447 kts 277°
2026-04-26 13:46 54.76830 -11.30471 34250 ft 447 kts 277°
2026-04-26 13:47 54.77654 -11.41047 34238 ft 447 kts 277°
2026-04-26 13:47 54.78472 -11.51683 34245 ft 446 kts 277°
2026-04-26 13:48 54.79282 -11.62335 34240 ft 446 kts 277°
2026-04-26 13:48 54.80085 -11.73019 34241 ft 446 kts 276°
2026-04-26 13:49 54.80872 -11.83619 34244 ft 446 kts 276°
2026-04-26 13:49 54.81652 -11.94249 34243 ft 446 kts 276°
2026-04-26 13:50 54.82423 -12.04890 34245 ft 446 kts 276°
2026-04-26 13:50 54.83180 -12.15488 34240 ft 446 kts 276°
2026-04-26 13:51 54.83933 -12.26143 34240 ft 445 kts 277°
2026-04-26 13:51 54.84674 -12.36765 34243 ft 445 kts 277°
2026-04-26 13:52 54.85409 -12.47443 34242 ft 445 kts 277°
2026-04-26 13:52 54.86130 -12.58062 34241 ft 445 kts 277°
2026-04-26 13:53 54.86843 -12.68688 34240 ft 444 kts 276°
2026-04-26 13:53 54.87544 -12.79288 34244 ft 444 kts 276°
2026-04-26 13:54 54.88242 -12.89996 34230 ft 445 kts 276°
2026-04-26 13:54 54.88926 -13.00617 34222 ft 445 kts 276°
2026-04-26 13:55 54.89826 -13.14846 34222 ft 445 kts 276°
2026-04-26 13:56 54.90927 -13.32608 34220 ft 445 kts 276°
2026-04-26 13:56 54.91574 -13.43259 34221 ft 445 kts 277°
2026-04-26 13:57 54.92210 -13.53884 34216 ft 444 kts 277°
2026-04-26 13:57 54.92839 -13.64552 34220 ft 444 kts 277°
2026-04-26 13:58 54.93458 -13.75209 34221 ft 444 kts 276°
2026-04-26 13:58 54.94068 -13.85876 34223 ft 444 kts 276°
2026-04-26 13:59 54.94671 -13.96575 34221 ft 444 kts 276°
2026-04-26 13:59 54.95260 -14.07219 34226 ft 444 kts 277°
2026-04-26 14:00 54.96418 -14.28612 34219 ft 445 kts 277°
2026-04-26 14:01 54.96978 -14.39260 34221 ft 444 kts 277°
2026-04-26 14:01 54.97532 -14.49945 34221 ft 444 kts 277°
2026-04-26 14:02 54.98078 -14.60649 34215 ft 443 kts 277°
2026-04-26 14:02 54.98611 -14.71301 34223 ft 443 kts 276°
2026-04-26 14:03 54.99133 -14.81926 34222 ft 443 kts 277°
2026-04-26 14:03 54.99648 -14.92582 34220 ft 443 kts 277°
2026-04-26 14:04 55.00620 -15.03086 34233 ft 438 kts 290°
2026-04-26 14:04 55.02855 -15.12906 34212 ft 437 kts 292°
2026-04-26 14:05 55.05089 -15.22730 34209 ft 437 kts 292°
2026-04-26 14:05 55.07287 -15.32524 34212 ft 437 kts 292°
2026-04-26 14:06 55.09487 -15.42412 34207 ft 436 kts 292°
2026-04-26 14:06 55.11650 -15.52198 34215 ft 435 kts 292°
2026-04-26 14:07 55.13820 -15.62063 34210 ft 435 kts 292°
2026-04-26 14:07 55.15980 -15.71941 34218 ft 435 kts 291°
2026-04-26 14:08 55.18113 -15.81735 34217 ft 435 kts 292°
2026-04-26 14:08 55.20260 -15.91639 34215 ft 435 kts 292°
2026-04-26 14:09 55.22382 -16.01482 34212 ft 435 kts 292°
2026-04-26 14:09 55.24508 -16.11387 34216 ft 434 kts 292°
2026-04-26 14:10 55.26618 -16.21265 34208 ft 433 kts 292°
2026-04-26 14:10 55.28709 -16.31102 34209 ft 433 kts 292°
2026-04-26 14:11 55.31842 -16.45933 34203 ft 432 kts 291°
2026-04-26 14:11 55.33915 -16.55810 34201 ft 431 kts 292°
2026-04-26 14:12 55.35974 -16.65664 34206 ft 431 kts 291°
2026-04-26 14:12 55.38028 -16.75541 34205 ft 431 kts 291°
2026-04-26 14:13 55.41075 -16.90286 34203 ft 430 kts 291°
2026-04-26 14:14 55.43117 -17.00227 34195 ft 430 kts 291°
2026-04-26 14:14 55.45134 -17.10096 34199 ft 431 kts 291°
2026-04-26 14:15 55.47142 -17.19972 34199 ft 430 kts 291°
2026-04-26 14:15 55.49145 -17.29874 34188 ft 430 kts 291°
2026-04-26 14:16 55.51138 -17.39776 34187 ft 429 kts 291°
2026-04-26 14:16 55.53128 -17.49706 34183 ft 428 kts 291°
2026-04-26 14:17 55.55093 -17.59571 34184 ft 428 kts 291°
2026-04-26 14:17 55.57047 -17.69424 34191 ft 427 kts 290°
2026-04-26 14:18 55.58997 -17.79301 34190 ft 427 kts 290°
2026-04-26 14:18 55.60941 -17.89206 34191 ft 426 kts 291°
2026-04-26 14:19 55.62870 -17.99089 34187 ft 426 kts 291°
2026-04-26 14:19 55.64790 -18.08964 34182 ft 425 kts 290°
2026-04-26 14:20 55.66696 -18.18820 34184 ft 425 kts 290°
2026-04-26 14:20 55.68605 -18.28750 34184 ft 424 kts 290°
2026-04-26 14:21 55.70478 -18.38542 34181 ft 423 kts 290°
2026-04-26 14:21 55.72360 -18.48424 34179 ft 422 kts 290°
2026-04-26 14:22 55.74221 -18.58256 34181 ft 422 kts 290°
2026-04-26 14:22 55.76082 -18.68137 34185 ft 421 kts 289°
2026-04-26 14:23 55.77931 -18.77996 34184 ft 421 kts 290°
2026-04-26 14:23 55.79764 -18.87830 34181 ft 421 kts 289°
2026-04-26 14:24 55.81599 -18.97720 34181 ft 421 kts 289°
2026-04-26 14:24 55.83414 -19.07561 34177 ft 421 kts 289°
2026-04-26 14:25 55.85226 -19.17432 34190 ft 421 kts 289°
2026-04-26 14:25 55.87026 -19.27297 34190 ft 421 kts 289°
2026-04-26 14:26 55.88825 -19.37207 34187 ft 420 kts 289°
2026-04-26 14:26 55.90609 -19.47079 34179 ft 420 kts 289°
2026-04-26 14:27 55.92386 -19.56972 34177 ft 419 kts 289°
2026-04-26 14:27 55.94143 -19.66807 34179 ft 419 kts 288°
2026-04-26 14:28 55.95899 -19.76682 34188 ft 419 kts 288°
2026-04-26 14:28 55.97644 -19.86556 34184 ft 418 kts 288°
2026-04-26 14:29 55.99381 -19.96438 34187 ft 418 kts 288°
2026-04-26 14:29 56.00812 -20.05790 34175 ft 417 kts 286°
2026-04-26 14:30 56.02255 -20.15800 34169 ft 417 kts 286°
2026-04-26 14:30 56.03677 -20.25792 34169 ft 416 kts 285°
2026-04-26 14:31 56.05087 -20.35782 34162 ft 416 kts 285°
2026-04-26 14:31 56.06493 -20.45806 34166 ft 415 kts 285°
2026-04-26 14:32 56.07887 -20.55829 34153 ft 416 kts 285°
2026-04-26 14:32 56.09265 -20.65803 34150 ft 415 kts 285°
2026-04-26 14:33 56.10639 -20.75802 34162 ft 415 kts 284°
2026-04-26 14:33 56.12011 -20.85861 34168 ft 416 kts 284°
2026-04-26 14:34 56.13370 -20.95896 34158 ft 417 kts 284°
2026-04-26 14:34 56.14728 -21.05996 34161 ft 417 kts 284°
2026-04-26 14:35 56.16080 -21.16100 34149 ft 417 kts 284°
2026-04-26 14:35 56.17421 -21.26202 34144 ft 417 kts 284°
2026-04-26 14:36 56.18744 -21.36238 34141 ft 417 kts 284°
2026-04-26 14:36 56.20067 -21.46335 34140 ft 417 kts 284°
2026-04-26 14:37 56.21389 -21.56509 34131 ft 417 kts 284°
2026-04-26 14:37 56.22694 -21.66612 34129 ft 417 kts 283°
2026-04-26 14:38 56.23989 -21.76708 34138 ft 417 kts 283°
2026-04-26 14:38 56.25286 -21.86901 34129 ft 418 kts 283°
2026-04-26 14:39 56.26565 -21.97015 34127 ft 418 kts 283°
2026-04-26 14:39 56.27837 -22.07146 34408 ft 412 kts 283°
2026-04-26 14:39 56.28464 -22.12175 34515 ft 410 kts 283°
2026-04-26 14:40 56.29087 -22.17170 34653 ft 408 kts 283°
2026-04-26 14:40 56.29700 -22.22123 34783 ft 406 kts 282°
2026-04-26 14:40 56.30310 -22.27064 34915 ft 403 kts 283°
2026-04-26 14:40 56.30913 -22.31966 35026 ft 401 kts 283°
2026-04-26 14:41 56.31510 -22.36833 35129 ft 398 kts 283°
2026-04-26 14:41 56.32687 -22.46470 35331 ft 393 kts 282°
2026-04-26 14:42 56.33842 -22.56007 35526 ft 388 kts 282°
2026-04-26 14:42 56.34412 -22.60740 35629 ft 385 kts 282°
2026-04-26 14:42 56.34971 -22.65391 35719 ft 382 kts 281°
2026-04-26 14:42 56.35531 -22.70065 35835 ft 380 kts 281°
2026-04-26 14:43 56.36081 -22.74705 35951 ft 377 kts 281°
2026-04-26 14:43 56.37169 -22.83836 36153 ft 371 kts 281°
2026-04-26 14:43 56.37700 -22.88334 36255 ft 367 kts 281°
2026-04-26 14:44 56.38226 -22.92807 36351 ft 364 kts 281°
2026-04-26 14:44 56.39267 -23.01699 36316 ft 364 kts 281°
2026-04-26 14:45 56.40304 -23.10615 36301 ft 362 kts 281°
2026-04-26 14:45 56.41337 -23.19566 36383 ft 375 kts 280°
2026-04-26 14:45 56.41873 -23.24221 36486 ft 382 kts 280°
2026-04-26 14:46 56.42411 -23.28921 36582 ft 389 kts 280°
2026-04-26 14:46 56.43517 -23.38629 36794 ft 402 kts 280°
2026-04-26 14:46 56.44082 -23.43616 36924 ft 409 kts 280°
2026-04-26 14:47 56.44656 -23.48701 37049 ft 416 kts 280°
2026-04-26 14:47 56.45235 -23.53852 37180 ft 422 kts 280°
2026-04-26 14:47 56.45820 -23.59072 37413 ft 425 kts 280°
2026-04-26 14:47 56.46399 -23.64266 37668 ft 427 kts 279°
2026-04-26 14:48 56.46981 -23.69498 37933 ft 429 kts 279°
2026-04-26 14:48 56.47564 -23.74782 38197 ft 430 kts 279°
2026-04-26 14:48 56.48155 -23.80141 38467 ft 431 kts 278°
2026-04-26 14:48 56.48739 -23.85457 38730 ft 432 kts 278°
2026-04-26 14:49 56.49317 -23.90758 38990 ft 432 kts 279°
2026-04-26 14:49 56.49899 -23.96108 39258 ft 432 kts 278°
2026-04-26 14:49 56.50473 -24.01402 39509 ft 432 kts 279°
2026-04-26 14:49 56.51048 -24.06743 39769 ft 432 kts 278°
2026-04-26 14:50 56.51614 -24.12009 39988 ft 431 kts 278°
2026-04-26 14:50 56.52758 -24.22745 40075 ft 438 kts 278°
2026-04-26 14:51 56.53911 -24.33654 40075 ft 445 kts 278°
2026-04-26 14:51 56.55058 -24.44583 40056 ft 437 kts 278°
2026-04-26 14:51 56.55611 -24.49882 40064 ft 425 kts 278°
2026-04-26 14:52 56.56152 -24.55093 40054 ft 415 kts 278°
2026-04-26 14:52 56.57197 -24.65252 40056 ft 408 kts 277°
2026-04-26 14:53 56.58231 -24.75390 40071 ft 413 kts 277°
2026-04-26 14:53 56.59275 -24.85718 40069 ft 424 kts 277°
2026-04-26 14:54 56.60338 -24.96313 40058 ft 434 kts 277°
2026-04-26 14:54 56.61411 -25.07099 40058 ft 435 kts 277°
2026-04-26 14:55 56.62474 -25.17877 40055 ft 434 kts 277°
2026-04-26 14:55 56.63515 -25.28535 40051 ft 426 kts 277°
2026-04-26 14:56 56.64525 -25.38965 40040 ft 419 kts 277°
2026-04-26 14:56 56.65515 -25.49299 40033 ft 412 kts 277°
2026-04-26 14:57 56.66480 -25.59464 40029 ft 406 kts 276°
2026-04-26 14:57 56.67420 -25.69457 40031 ft 399 kts 276°
2026-04-26 14:58 56.68337 -25.79291 40026 ft 393 kts 275°
2026-04-26 14:58 56.69230 -25.88954 40021 ft 387 kts 275°
2026-04-26 14:59 56.70107 -25.98535 40030 ft 380 kts 275°
2026-04-26 14:59 56.70955 -26.07868 40005 ft 373 kts 275°
2026-04-26 15:00 56.71782 -26.17046 40003 ft 364 kts 275°
2026-04-26 15:00 56.72586 -26.26082 39545 ft 368 kts 275°
2026-04-26 15:00 56.72995 -26.30719 39072 ft 377 kts 275°
2026-04-26 15:01 56.73414 -26.35491 38494 ft 398 kts 275°
2026-04-26 15:01 56.73858 -26.40586 37736 ft 424 kts 275°
2026-04-26 15:01 56.74334 -26.46022 37365 ft 434 kts 275°
2026-04-26 15:02 56.75269 -26.56740 37141 ft 432 kts 276°
2026-04-26 15:02 56.75732 -26.62107 36976 ft 431 kts 275°
2026-04-26 15:02 56.76194 -26.67486 37015 ft 429 kts 275°
2026-04-26 15:03 56.77100 -26.78136 37008 ft 426 kts 274°
2026-04-26 15:03 56.77992 -26.88731 37009 ft 423 kts 275°
2026-04-26 15:04 56.78869 -26.99290 37001 ft 421 kts 274°
2026-04-26 15:04 56.79733 -27.09790 36997 ft 418 kts 274°
2026-04-26 15:05 56.80582 -27.20214 36993 ft 417 kts 274°
2026-04-26 15:05 56.81421 -27.30624 36988 ft 415 kts 274°
2026-04-26 15:06 56.82250 -27.41038 36978 ft 413 kts 274°
2026-04-26 15:06 56.83065 -27.51368 36969 ft 412 kts 274°
2026-04-26 15:07 56.84263 -27.66784 36959 ft 409 kts 272°
2026-04-26 15:07 56.85048 -27.77018 36939 ft 409 kts 272°
2026-04-26 15:08 56.85828 -27.87308 36933 ft 408 kts 272°
2026-04-26 15:08 56.86595 -27.97539 36921 ft 407 kts 272°
2026-04-26 15:09 56.87349 -28.07700 36921 ft 406 kts 272°
2026-04-26 15:09 56.88095 -28.17879 36909 ft 404 kts 272°
2026-04-26 15:10 56.88706 -28.26308 36896 ft 403 kts 272°
2026-04-26 15:10 56.89553 -28.38122 36890 ft 401 kts 272°
2026-04-26 15:11 56.90267 -28.48209 36882 ft 399 kts 272°
2026-04-26 15:11 56.90966 -28.58202 36887 ft 398 kts 271°
2026-04-26 15:12 56.91658 -28.68215 36889 ft 396 kts 271°
2026-04-26 15:12 56.92336 -28.78135 36882 ft 395 kts 270°
2026-04-26 15:13 56.92674 -28.83166 36521 ft 407 kts 271°
2026-04-26 15:13 56.93021 -28.88395 36175 ft 426 kts 271°
2026-04-26 15:13 56.93387 -28.93881 35761 ft 436 kts 271°
2026-04-26 15:13 56.93756 -28.99388 35422 ft 434 kts 271°
2026-04-26 15:14 56.94116 -29.04791 35327 ft 422 kts 271°
2026-04-26 15:14 56.94464 -29.10054 35137 ft 416 kts 270°
2026-04-26 15:14 56.94803 -29.15262 34909 ft 415 kts 270°
2026-04-26 15:14 56.95138 -29.20479 34641 ft 420 kts 270°
2026-04-26 15:15 56.95480 -29.25835 34370 ft 425 kts 270°
2026-04-26 15:15 56.95821 -29.31195 34100 ft 427 kts 271°
2026-04-26 15:15 56.96164 -29.36593 33854 ft 425 kts 270°
2026-04-26 15:15 56.96502 -29.41902 33871 ft 417 kts 270°
2026-04-26 15:16 56.97149 -29.52312 33864 ft 413 kts 270°
2026-04-26 15:16 56.97788 -29.62761 33852 ft 415 kts 270°
2026-04-26 15:17 56.98320 -29.71545 33849 ft 417 kts 269°
2026-04-26 15:17 56.99141 -29.85291 33848 ft 419 kts 269°
2026-04-26 15:18 56.99762 -29.95873 33845 ft 420 kts 269°
2026-04-26 15:18 57.00239 -30.06477 33847 ft 420 kts 267°
2026-04-26 15:19 57.00665 -30.17140 33831 ft 421 kts 267°
2026-04-26 15:19 57.01079 -30.27860 33828 ft 421 kts 268°
2026-04-26 15:20 57.01480 -30.38548 33821 ft 421 kts 267°
2026-04-26 15:20 57.01868 -30.49182 33803 ft 421 kts 266°
2026-04-26 15:21 57.02251 -30.59917 33804 ft 421 kts 266°
2026-04-26 15:21 57.02623 -30.70591 33809 ft 420 kts 265°
2026-04-26 15:22 57.02983 -30.81217 33805 ft 421 kts 265°
2026-04-26 15:22 57.03336 -30.91868 33799 ft 420 kts 265°
2026-04-26 15:23 57.03678 -31.02589 33799 ft 420 kts 265°
2026-04-26 15:23 57.04010 -31.13186 33785 ft 420 kts 264°
2026-04-26 15:24 57.04335 -31.23842 33775 ft 416 kts 264°
2026-04-26 15:24 57.04498 -31.29084 33774 ft 403 kts 263°
2026-04-26 15:24 57.04644 -31.34135 33782 ft 401 kts 264°
2026-04-26 15:25 57.04886 -31.42705 33782 ft 403 kts 264°
2026-04-26 15:25 57.05221 -31.54739 33779 ft 407 kts 264°
2026-04-26 15:26 57.05503 -31.65116 33784 ft 410 kts 263°
2026-04-26 15:26 57.05778 -31.75594 33783 ft 413 kts 262°
2026-04-26 15:27 57.06046 -31.86123 33781 ft 416 kts 263°
2026-04-26 15:27 57.06305 -31.96700 33770 ft 418 kts 263°
2026-04-26 15:28 57.06560 -32.07415 33762 ft 421 kts 263°
2026-04-26 15:28 57.06806 -32.18171 33759 ft 424 kts 262°
2026-04-26 15:29 57.07043 -32.28947 33751 ft 426 kts 263°
2026-04-26 15:30 57.07495 -32.50716 33753 ft 427 kts 263°
2026-04-26 15:30 57.07707 -32.61582 33745 ft 428 kts 263°
2026-04-26 15:31 57.08007 -32.77908 33759 ft 425 kts 262°
2026-04-26 15:32 57.08225 -32.90548 33755 ft 426 kts 262°
2026-04-26 15:32 57.08456 -33.04988 33742 ft 428 kts 262°
2026-04-26 15:33 57.08622 -33.15953 33731 ft 429 kts 262°
2026-04-26 15:33 57.08776 -33.26816 33738 ft 429 kts 262°
2026-04-26 15:34 57.08921 -33.37778 33743 ft 431 kts 262°
2026-04-26 15:34 57.09058 -33.48773 33728 ft 431 kts 262°
2026-04-26 15:35 57.09184 -33.59571 33735 ft 432 kts 262°
2026-04-26 15:35 57.09302 -33.70600 33724 ft 434 kts 262°
2026-04-26 15:36 57.09412 -33.81684 33710 ft 435 kts 262°
2026-04-26 15:36 57.09512 -33.92803 33706 ft 437 kts 262°
2026-04-26 15:37 57.09602 -34.04004 33700 ft 439 kts 262°
2026-04-26 15:37 57.09683 -34.15227 33707 ft 441 kts 262°
2026-04-26 15:38 57.09755 -34.26478 33698 ft 442 kts 262°
2026-04-26 15:38 57.09815 -34.37775 33697 ft 444 kts 262°
2026-04-26 15:39 57.09866 -34.49127 33702 ft 446 kts 262°
2026-04-26 15:39 57.09895 -34.56776 33697 ft 447 kts 262°
2026-04-26 15:40 57.09937 -34.72000 33709 ft 451 kts 262°
2026-04-26 15:40 57.09957 -34.83529 33698 ft 452 kts 262°
2026-04-26 15:41 57.09968 -34.95052 33712 ft 454 kts 262°
2026-04-26 15:41 57.09967 -35.06666 33694 ft 455 kts 262°
2026-04-26 15:42 57.09956 -35.18259 33662 ft 457 kts 262°
2026-04-26 15:42 57.09934 -35.29989 33655 ft 459 kts 262°
2026-04-26 15:43 57.09900 -35.41671 33666 ft 460 kts 262°
2026-04-26 15:44 57.09829 -35.59302 33644 ft 462 kts 262°
2026-04-26 15:44 57.09733 -35.77025 33657 ft 464 kts 261°
2026-04-26 15:45 57.09626 -35.92809 33646 ft 466 kts 262°
2026-04-26 15:46 57.09463 -36.12597 33653 ft 469 kts 262°
2026-04-26 15:46 57.09389 -36.20620 33649 ft 470 kts 262°
2026-04-26 15:47 57.09159 -36.42620 33620 ft 470 kts 263°
2026-04-26 15:48 57.09017 -36.54658 33630 ft 469 kts 263°
2026-04-26 15:48 57.08864 -36.66606 33626 ft 469 kts 262°
2026-04-26 15:49 57.08700 -36.78519 33612 ft 469 kts 262°
2026-04-26 15:49 57.08554 -36.88538 33610 ft 470 kts 262°
2026-04-26 15:50 57.08336 -37.02490 33613 ft 470 kts 263°
2026-04-26 15:50 57.08171 -37.12466 33615 ft 471 kts 263°
2026-04-26 15:51 57.07965 -37.24387 33642 ft 469 kts 263°
2026-04-26 15:51 57.07744 -37.36401 33617 ft 470 kts 263°
2026-04-26 15:52 57.07513 -37.48338 33609 ft 470 kts 263°
2026-04-26 15:52 57.07229 -37.62288 33600 ft 471 kts 263°
2026-04-26 15:53 57.07016 -37.72273 33594 ft 471 kts 263°
2026-04-26 15:53 57.06750 -37.84272 33594 ft 469 kts 263°
2026-04-26 15:54 57.06476 -37.96130 33604 ft 470 kts 263°
2026-04-26 15:54 57.06183 -38.08262 33589 ft 473 kts 263°
2026-04-26 15:55 57.05881 -38.20330 33585 ft 474 kts 264°
2026-04-26 15:55 57.05568 -38.32366 33586 ft 475 kts 264°
2026-04-26 15:56 57.05239 -38.44540 33568 ft 478 kts 264°
2026-04-26 15:56 57.04901 -38.56635 33575 ft 480 kts 264°
2026-04-26 15:57 57.04546 -38.68908 33567 ft 480 kts 263°
2026-04-26 15:57 57.04183 -38.81048 33568 ft 480 kts 264°
2026-04-26 15:58 57.03805 -38.93284 33561 ft 481 kts 264°
2026-04-26 15:58 57.03416 -39.05501 33559 ft 482 kts 264°
2026-04-26 15:59 57.03012 -39.17766 33545 ft 482 kts 264°
2026-04-26 15:59 57.02597 -39.30026 33533 ft 484 kts 264°
2026-04-26 16:00 57.02097 -39.44378 33529 ft 486 kts 264°
2026-04-26 16:00 57.01728 -39.54636 33533 ft 487 kts 264°
2026-04-26 16:01 57.01282 -39.66752 33525 ft 487 kts 264°
2026-04-26 16:01 57.00814 -39.79140 33520 ft 487 kts 264°
2026-04-26 16:02 57.00256 -39.93535 33518 ft 486 kts 264°
2026-04-26 16:02 56.99749 -40.03753 33517 ft 485 kts 262°
2026-04-26 16:03 56.99048 -40.16013 33525 ft 487 kts 262°
2026-04-26 16:03 56.98313 -40.28433 33511 ft 490 kts 262°
2026-04-26 16:04 56.97567 -40.40758 33509 ft 492 kts 262°
2026-04-26 16:04 56.96796 -40.53253 33508 ft 493 kts 263°
2026-04-26 16:05 56.96017 -40.65684 33507 ft 492 kts 262°
2026-04-26 16:05 56.95229 -40.78022 33491 ft 491 kts 262°
2026-04-26 16:06 56.94427 -40.90402 33477 ft 492 kts 262°
2026-04-26 16:06 56.93609 -41.02824 33468 ft 491 kts 263°
2026-04-26 16:07 56.92780 -41.15229 33476 ft 493 kts 263°
2026-04-26 16:07 56.91936 -41.27657 33480 ft 495 kts 263°
2026-04-26 16:08 56.91081 -41.40082 33469 ft 496 kts 263°
2026-04-26 16:08 56.90209 -41.52544 33461 ft 495 kts 263°
2026-04-26 16:09 56.89324 -41.65019 33454 ft 495 kts 262°
2026-04-26 16:09 56.88428 -41.77465 33453 ft 494 kts 262°
2026-04-26 16:10 56.87368 -41.91964 33438 ft 497 kts 263°
2026-04-26 16:10 56.86596 -42.02383 33440 ft 497 kts 263°
2026-04-26 16:11 56.85666 -42.14774 33456 ft 495 kts 263°
2026-04-26 16:11 56.84721 -42.27191 33457 ft 494 kts 263°
2026-04-26 16:12 56.83769 -42.39542 33449 ft 493 kts 263°
2026-04-26 16:12 56.82307 -42.58172 33449 ft 494 kts 263°
2026-04-26 16:13 56.81323 -42.70518 33415 ft 493 kts 263°
2026-04-26 16:13 56.80329 -42.82843 33445 ft 494 kts 263°
2026-04-26 16:14 56.79320 -42.95179 33422 ft 491 kts 263°
2026-04-26 16:15 56.77790 -43.13581 33446 ft 492 kts 263°
2026-04-26 16:15 56.76758 -43.25825 33416 ft 492 kts 264°
2026-04-26 16:16 56.75174 -43.44327 33430 ft 492 kts 264°
2026-04-26 16:16 56.74115 -43.56514 33439 ft 493 kts 264°
2026-04-26 16:17 56.73033 -43.68815 33426 ft 494 kts 263°
2026-04-26 16:17 56.71932 -43.81192 33431 ft 495 kts 264°
2026-04-26 16:18 56.70267 -43.99637 33433 ft 493 kts 264°
2026-04-26 16:19 56.68579 -44.18009 33429 ft 494 kts 264°
2026-04-26 16:20 56.66853 -44.36499 33455 ft 494 kts 265°
2026-04-26 16:20 56.65112 -44.54839 33456 ft 495 kts 265°
2026-04-26 16:21 56.63929 -44.67120 33476 ft 495 kts 265°
2026-04-26 16:21 56.62728 -44.79455 33486 ft 497 kts 265°
2026-04-26 16:22 56.61521 -44.91720 33499 ft 498 kts 266°
2026-04-26 16:22 56.60294 -45.04080 33509 ft 498 kts 266°
2026-04-26 16:23 56.59058 -45.16386 33502 ft 499 kts 266°
2026-04-26 16:23 56.57798 -45.28788 33508 ft 498 kts 266°
2026-04-26 16:24 56.56543 -45.41038 33508 ft 498 kts 266°
2026-04-26 16:24 56.55263 -45.53390 33504 ft 498 kts 267°
2026-04-26 16:25 56.53975 -45.65684 33525 ft 498 kts 266°
2026-04-26 16:25 56.52679 -45.77936 33530 ft 498 kts 267°
2026-04-26 16:26 56.51374 -45.90157 33530 ft 498 kts 267°
2026-04-26 16:26 56.50051 -46.02421 33524 ft 499 kts 267°
2026-04-26 16:27 56.48709 -46.14735 33533 ft 496 kts 267°
2026-04-26 16:27 56.47375 -46.26868 33543 ft 495 kts 267°
2026-04-26 16:28 56.46021 -46.39075 33550 ft 496 kts 268°
2026-04-26 16:28 56.44656 -46.51245 33541 ft 497 kts 268°
2026-04-26 16:29 56.43272 -46.63482 33545 ft 497 kts 268°
2026-04-26 16:29 56.41880 -46.75675 33561 ft 499 kts 266°
2026-04-26 16:30 56.40472 -46.87887 33566 ft 501 kts 267°
2026-04-26 16:30 56.39048 -47.00111 33589 ft 498 kts 267°
2026-04-26 16:31 56.37613 -47.12341 33586 ft 501 kts 268°
2026-04-26 16:31 56.36167 -47.24544 33587 ft 502 kts 267°
2026-04-26 16:32 56.34695 -47.36864 33599 ft 505 kts 267°
2026-04-26 16:32 56.33209 -47.49164 33605 ft 503 kts 267°
2026-04-26 16:33 56.31712 -47.61447 33611 ft 500 kts 267°
2026-04-26 16:33 56.30224 -47.73577 33608 ft 500 kts 266°
2026-04-26 16:34 56.28707 -47.85828 33641 ft 501 kts 266°
2026-04-26 16:34 56.27184 -47.97997 33639 ft 501 kts 266°
2026-04-26 16:35 56.25648 -48.10188 33635 ft 504 kts 266°
2026-04-26 16:35 56.24094 -48.22408 33644 ft 502 kts 266°
2026-04-26 16:36 56.22527 -48.34622 33647 ft 500 kts 266°
2026-04-26 16:36 56.20953 -48.46804 33654 ft 503 kts 266°
2026-04-26 16:37 56.19371 -48.58915 33657 ft 501 kts 266°
2026-04-26 16:37 56.17770 -48.71102 33656 ft 502 kts 266°
2026-04-26 16:38 56.16158 -48.83264 33670 ft 504 kts 266°
2026-04-26 16:38 56.14538 -48.95369 33675 ft 502 kts 265°
2026-04-26 16:39 56.12896 -49.07562 33682 ft 504 kts 265°
2026-04-26 16:39 56.11239 -49.19750 33699 ft 505 kts 266°
2026-04-26 16:40 56.09575 -49.31896 33704 ft 506 kts 266°
2026-04-26 16:40 56.07896 -49.44050 33716 ft 505 kts 266°
2026-04-26 16:41 56.06196 -49.56266 33714 ft 506 kts 266°
2026-04-26 16:41 56.04496 -49.68375 33725 ft 504 kts 265°
2026-04-26 16:42 56.02774 -49.80559 33713 ft 507 kts 265°
2026-04-26 16:42 56.01040 -49.92728 33733 ft 510 kts 264°
2026-04-26 16:43 55.98645 -50.04732 33733 ft 517 kts 257°
2026-04-26 16:43 55.95911 -50.16642 33739 ft 519 kts 256°
2026-04-26 16:44 55.93093 -50.28476 33738 ft 519 kts 256°
2026-04-26 16:44 55.90238 -50.40277 33758 ft 522 kts 255°
2026-04-26 16:45 55.87347 -50.52105 33741 ft 522 kts 255°
2026-04-26 16:45 55.84448 -50.63883 33743 ft 522 kts 255°
2026-04-26 16:46 55.81534 -50.75663 33753 ft 523 kts 255°
2026-04-26 16:46 55.78592 -50.87485 33765 ft 523 kts 254°
2026-04-26 16:47 55.75664 -50.99180 33766 ft 520 kts 254°
2026-04-26 16:47 55.72722 -51.10883 33770 ft 523 kts 254°
2026-04-26 16:48 55.69754 -51.22627 33781 ft 524 kts 254°
2026-04-26 16:48 55.66769 -51.34358 33791 ft 523 kts 254°
2026-04-26 16:49 55.63792 -51.46007 33791 ft 522 kts 254°
2026-04-26 16:49 55.60792 -51.57691 33796 ft 523 kts 254°
2026-04-26 16:50 55.57770 -51.69397 33799 ft 526 kts 253°
2026-04-26 16:50 55.54731 -51.81099 33800 ft 525 kts 253°
2026-04-26 16:51 55.51680 -51.92794 33815 ft 526 kts 253°
2026-04-26 16:51 55.48611 -52.04487 33821 ft 525 kts 253°
2026-04-26 16:52 55.46070 -52.14133 33833 ft 525 kts 253°
2026-04-26 16:52 55.42473 -52.27711 33853 ft 527 kts 253°
2026-04-26 16:53 55.39368 -52.39368 33853 ft 527 kts 253°
2026-04-26 16:53 55.36255 -52.50993 33857 ft 527 kts 253°
2026-04-26 16:54 55.33142 -52.62561 33861 ft 527 kts 253°
2026-04-26 16:54 55.30007 -52.74152 33878 ft 528 kts 252°
2026-04-26 16:55 55.26834 -52.85821 33875 ft 529 kts 251°
2026-04-26 16:55 55.23695 -52.97303 33882 ft 526 kts 252°
2026-04-26 16:56 55.18933 -53.14633 33890 ft 531 kts 251°
2026-04-26 16:57 55.15723 -53.26229 33896 ft 531 kts 251°
2026-04-26 16:57 55.10910 -53.43509 33906 ft 527 kts 251°
2026-04-26 16:58 55.08237 -53.53057 33912 ft 529 kts 251°
2026-04-26 16:59 55.02824 -53.72266 33919 ft 530 kts 250°